DECAYED

SL-4 R/B, 61044 (Decayed)

Orbit data source: Space-Track

SL-4 R/B, 61044 was space debris in LEO originally from a launch on Wed, 11 Sep 2024 UTC launched from the Tyuratam Missile And Space Complex (TTMTR). Debris objects in space refer to the collection of defunct objects orbiting the Earth. Examples of debris include non-operational satellites, rocket bodies, and fragments generated from explosions, collisions, or faulty payload assembly.

Not visible in the next 10 days
Identifier
61044, 2024-162B
Orbit
Decayed
Last TLE update
10 months ago
Origin
Manufacturer
TsSKB-Progress
Mission
Decayed spacecraft
Bus & Motor
BLOK-I, RD-0110
Mass
2,350 kg wet, 2,350 kg dry
Launch date (UTC)
2024-09-11 (10 months ago)
Launch vehicle
Unknown
Launch site
Tyuratam Missile And Space Complex (TTMTR)
Object type
Payload
Rocket body
Debris
Shape & HBR
Cyl, 8.99 m
Radar Cross Section
21.560 m², Large (>1 m²)

Expand to show TLE details & history

TLE from 10 months ago
0 SL-4 R/B
1 61044U 24162B   24257.35435400  .20508142  12653-4  36769-3 0  9991
2 61044  51.6564 237.6431 0005037  55.6763  97.7759 16.47424603   277
Epoch: 2024-09-13T08:30Z
TLE epoch observation values (Epoch: 2024-09-13T08:30:16.185Z)
Latitude
20.528°
Longitude
-79.8777°
Altitude
146.94 km
Speed
7.821 km/s
True Right ascension
02h 42m 04s
True Declination
20° 24' 17"
Sunlit
Object was in full shadow at epoch
Visualization orbit readout
Visualization observer readout
Orbital elements
Apogee altitude
149.939 km
Perigee altitude
143.366 km
Semi-major axis
6,524.789 km
Eccentricity
0.0005
Inclination
51.6564°
RAAN
237.6431°
Arg. of periapsis
55.6763°
True anomaly
Unknown
Mean anomaly
97.7759°
Eccentric anomaly
Unknown
Mean motion
4.11807 °/min
Orbital period
87.42 mins
BSTAR
0.00036769
Loading maneuver chart data...
Loading SW <> Apogee altitude chart data...
Loading historical data...
Loading historical data...
Loading historical data...
Loading historical data...
Loading historical data...
Loading historical data...
Loading historical data...
Other satellites on launch #162 in the year 2024 (2024-09-11 UTC)

SL-4 R/B Visibility

Observer location: undefined°, undefined°

This satellite is decayed
Span
Click to sort rows by Start time (UTC) header in descending order
Start Az.
Max El. time (UTC)
Max El. Az.
Max El.
End time (UTC)
End Az.
|